{"data":{"norad_id":62204,"intl_designator":"2024-229N","name":"STARLINK-32664","alt_names":[],"object_type":"PAYLOAD","status":"ACTIVE","operator":null,"country":"US","launch_date":"2024-12-04","launch_site_code":"AFETR","launch_vehicle":null,"mission":null,"orbit_class":"UNKNOWN","rcs_meters":null,"size_class":null,"mass_kg":null,"dimensions":null,"purposes":["comms"],"wikipedia_slug":null,"has_3d_model":false,"image_url":null,"decayed_at":null,"tle_current":{"epoch":"2026-05-25T04:13:14.495808Z","epoch_age_seconds":66779,"freshness":"FRESH","line1":"1 62204U 24229N   26145.17586222  .00131720  00000+0  21663-2 0  9997","line2":"2 62204  42.9958 188.8006 0018566  65.3153 294.9638 15.51000669 82377","mean_motion":15.51000669,"eccentricity":0.0018566,"inclination_deg":42.9958,"raan_deg":188.8006,"arg_perigee_deg":65.3153,"mean_anomaly_deg":294.9638,"bstar":0.0021663,"rev_number":8237,"period_min":92.843286839356,"perigee_km":401.19324863879,"apogee_km":426.41308085853,"semimajor_km":6791.9401647487,"source":"CELESTRAK","updated_at":"2026-05-25T13:38:19.608422Z"}}}